Weather History for KESC - April, 2014

Change the Weather History Date:

Tuesday, April 22, 2014

  Actual Average Record
Temperature  
Mean Temperature 38 °F -  
Max Temperature 44 °F 48 °F 69 °F (1953)
Min Temperature 32 °F 34 °F 23 °F (1986)
Degree Days  
Heating Degree Days 26    
Moisture  
Dew Point 26 °F    
Average Humidity 59    
Maximum Humidity 75    
Minimum Humidity 49    
Precipitation  
Precipitation 0.00 in - - ()
Sea Level Pressure  
Sea Level Pressure 29.93 in    
Wind  
Wind Speed 12 mph (NNW)    
Max Wind Speed 18 mph    
Max Gust Speed 30 mph    
Visibility 10 miles    
Events      
Averages and records for this station are not official NWS values.
T = Trace of Precipitation, MM = Missing Value Source: NWS Daily Summary

Daily Weather History Graph

Daily Weather History Graph

Search for Another Location

Airport or City:

Trip Planner

Search our weather history database for the weather conditions in past years. The results will help you decide how hot, cold, wet, or windy it might be!

Date:

Astronomy

Apr. 22, 2014 Rise Set
Actual Time 6:50 AM EDT 8:44 PM EDT
Civil Twilight 6:18 AM EDT 9:16 PM EDT
Nautical Twilight 5:39 AM EDT 9:55 PM EDT
Astronomical Twilight 4:57 AM EDT 10:38 PM EDT
Moon 3:00 AM EDT (4/22) 1:24 PM EDT (4/22)
Length of Visible Light 14h 57m
Length of Day
13h 53m
Last Quarter, 46% of the Moon is Illuminated
Apr 22
Last Quarter
Apr 29
New
May 6
First Quarter
May 14
Full
May 21
Last Quarter

Hourly Weather History & Observations

Time (EDT) Temp. Windchill Dew Point Humidity Pressure Visibility Wind Dir Wind Speed Gust Speed Precip Events Conditions
12:15 AM 42.8 °F 38.0 °F 30.2 °F 61% 29.84 in 10.0 mi NW 8.1 mph - N/A   Overcast
12:35 AM 42.8 °F 37.5 °F 30.2 °F 61% 29.84 in 10.0 mi NW 9.2 mph 19.6 mph N/A   Overcast
12:55 AM 42.8 °F 37.0 °F 30.2 °F 61% 29.83 in 10.0 mi NW 10.4 mph 20.7 mph N/A   Overcast
1:15 AM 42.8 °F 36.6 °F 28.4 °F 57% 29.83 in 10.0 mi NW 11.5 mph 21.9 mph N/A   Scattered Clouds
1:35 AM 41.0 °F 34.3 °F 28.4 °F 61% 29.83 in 10.0 mi NW 11.5 mph 20.7 mph N/A   Clear
1:55 AM 41.0 °F 34.7 °F 26.6 °F 57% 29.83 in 10.0 mi NW 10.4 mph 21.9 mph N/A   Clear
2:15 AM 41.0 °F 32.8 °F 26.6 °F 57% 29.83 in 10.0 mi NNW 16.1 mph 23.0 mph N/A   Mostly Cloudy
2:35 AM 41.0 °F 33.9 °F 26.6 °F 57% 29.82 in 10.0 mi NW 12.7 mph 19.6 mph N/A   Mostly Cloudy
2:55 AM 41.0 °F 35.2 °F 26.6 °F 57% 29.83 in 10.0 mi NW 9.2 mph 19.6 mph N/A   Scattered Clouds
3:15 AM 39.2 °F 31.6 °F 26.6 °F 61% 29.82 in 10.0 mi NW 12.7 mph 20.7 mph N/A   Scattered Clouds
3:35 AM 39.2 °F 30.5 °F 26.6 °F 61% 29.83 in 10.0 mi NW 16.1 mph 20.7 mph N/A   Mostly Cloudy
3:55 AM 39.2 °F 32.5 °F 28.4 °F 65% 29.83 in 10.0 mi NW 10.4 mph 17.3 mph N/A   Overcast
4:15 AM 39.2 °F 33.6 °F 26.6 °F 61% 29.83 in 10.0 mi NW 8.1 mph - N/A   Overcast
4:35 AM 39.2 °F 33.0 °F 26.6 °F 61% 29.83 in 10.0 mi NW 9.2 mph 19.6 mph N/A   Overcast
4:55 AM 39.2 °F 31.6 °F 26.6 °F 61% 29.84 in 10.0 mi NW 12.7 mph 17.3 mph N/A   Overcast
5:15 AM 39.2 °F 32.0 °F 26.6 °F 61% 29.84 in 10.0 mi NW 11.5 mph 20.7 mph N/A   Overcast
5:35 AM 39.2 °F 31.2 °F 26.6 °F 61% 29.84 in 10.0 mi NW 13.8 mph 20.7 mph N/A   Overcast
6:15 AM 39.2 °F 29.8 °F 26.6 °F 61% 29.84 in 10.0 mi NNW 18.4 mph 26.5 mph N/A   Overcast
6:35 AM 37.4 °F 28.9 °F 28.4 °F 70% 29.85 in 10.0 mi NNW 13.8 mph 21.9 mph N/A   Overcast
6:55 AM 37.4 °F 30.3 °F 26.6 °F 65% 29.86 in 10.0 mi NW 10.4 mph 23.0 mph N/A   Overcast
7:15 AM 37.4 °F 29.3 °F 26.6 °F 65% 29.86 in 10.0 mi NW 12.7 mph 21.9 mph N/A   Overcast
7:35 AM 37.4 °F 28.2 °F 26.6 °F 65% 29.86 in 10.0 mi NW 16.1 mph 28.8 mph N/A   Overcast
7:55 AM 37.4 °F 30.3 °F 28.4 °F 70% 29.87 in 10.0 mi NNW 10.4 mph 25.3 mph N/A   Overcast
8:15 AM 37.4 °F 29.3 °F 28.4 °F 70% 29.88 in 10.0 mi NNW 12.7 mph 18.4 mph N/A   Overcast
8:35 AM 37.4 °F 30.3 °F 28.4 °F 70% 29.89 in 10.0 mi NNW 10.4 mph 23.0 mph N/A   Overcast
8:55 AM 37.4 °F 27.8 °F 28.4 °F 70% 29.88 in 10.0 mi NNW 17.3 mph 25.3 mph N/A   Overcast
9:15 AM 39.2 °F 32.5 °F 26.6 °F 61% 29.89 in 10.0 mi North 10.4 mph 19.6 mph N/A   Overcast
9:35 AM 39.2 °F 30.2 °F 26.6 °F 61% 29.90 in 10.0 mi NNW 17.3 mph 27.6 mph N/A   Overcast
9:55 AM 39.2 °F 30.2 °F 26.6 °F 61% 29.90 in 10.0 mi NNW 17.3 mph 21.9 mph N/A   Overcast
10:15 AM 39.2 °F 31.2 °F 26.6 °F 61% 29.89 in 10.0 mi North 13.8 mph 24.2 mph N/A   Overcast
10:35 AM 41.0 °F 33.5 °F 26.6 °F 57% 29.90 in 10.0 mi North 13.8 mph 23.0 mph N/A   Overcast
10:55 AM 41.0 °F 32.8 °F 26.6 °F 57% 29.91 in 10.0 mi NNW 16.1 mph 24.2 mph N/A   Overcast
11:15 AM 42.8 °F 34.8 °F 28.4 °F 57% 29.91 in 10.0 mi North 17.3 mph 25.3 mph N/A   Overcast
11:35 AM 42.8 °F 35.1 °F 26.6 °F 53% 29.91 in 5.0 mi NNW 16.1 mph 26.5 mph N/A   Overcast
11:55 AM 42.8 °F 35.8 °F 26.6 °F 53% 29.91 in 10.0 mi NNW 13.8 mph 25.3 mph N/A   Overcast
12:15 PM 42.8 °F 35.1 °F 26.6 °F 53% 29.92 in 10.0 mi NNW 16.1 mph 25.3 mph N/A   Overcast
12:35 PM 42.8 °F 35.1 °F 26.6 °F 53% 29.92 in 10.0 mi NNW 16.1 mph 26.5 mph N/A   Overcast
12:55 PM 42.8 °F 35.4 °F 26.6 °F 53% 29.93 in 10.0 mi NNW 15.0 mph 24.2 mph N/A   Overcast
1:15 PM 42.8 °F 35.8 °F 26.6 °F 53% 29.93 in 10.0 mi NNW 13.8 mph 21.9 mph N/A   Overcast
1:35 PM 42.8 °F 35.4 °F 26.6 °F 53% 29.93 in 10.0 mi NNW 15.0 mph 26.5 mph N/A   Overcast
1:55 PM 42.8 °F 35.1 °F 26.6 °F 53% 29.94 in 10.0 mi NNW 16.1 mph 25.3 mph N/A   Overcast
2:15 PM 42.8 °F 35.1 °F 24.8 °F 49% 29.95 in 10.0 mi NNW 16.1 mph 23.0 mph N/A   Overcast
2:35 PM 42.8 °F 35.1 °F 24.8 °F 49% 29.95 in 10.0 mi NW 16.1 mph 23.0 mph N/A   Overcast
2:55 PM 42.8 °F 35.8 °F 26.6 °F 53% 29.95 in 10.0 mi NNW 13.8 mph 23.0 mph N/A   Overcast
3:15 PM 42.8 °F 34.8 °F 24.8 °F 49% 29.96 in 10.0 mi NNW 17.3 mph 29.9 mph N/A   Overcast
3:35 PM 44.6 °F 38.1 °F 26.6 °F 49% 29.96 in 10.0 mi NNW 13.8 mph 20.7 mph N/A   Overcast
3:55 PM 42.8 °F 35.4 °F 26.6 °F 53% 29.96 in 10.0 mi NNW 15.0 mph 24.2 mph N/A   Overcast
4:15 PM 42.8 °F 35.8 °F 24.8 °F 49% 29.97 in 10.0 mi NNW 13.8 mph 25.3 mph N/A   Overcast
4:35 PM 42.8 °F 35.1 °F 24.8 °F 49% 29.97 in 10.0 mi NNW 16.1 mph 21.9 mph N/A   Overcast
4:55 PM 44.6 °F 37.4 °F 26.6 °F 49% 29.98 in 10.0 mi NNW 16.1 mph 24.2 mph N/A   Overcast
5:15 PM 42.8 °F 34.8 °F 26.6 °F 53% 29.99 in 10.0 mi NNW 17.3 mph 26.5 mph N/A   Overcast
5:35 PM 41.0 °F 32.8 °F 28.4 °F 61% 30.00 in 10.0 mi NNW 16.1 mph 23.0 mph N/A   Overcast
5:55 PM 41.0 °F 34.3 °F 26.6 °F 57% 30.00 in 10.0 mi NNW 11.5 mph 21.9 mph N/A   Overcast
6:15 PM 39.2 °F 30.8 °F 26.6 °F 61% 30.01 in 10.0 mi North 15.0 mph 21.9 mph N/A   Overcast
6:35 PM 39.2 °F 30.2 °F 24.8 °F 56% 30.02 in 10.0 mi NNW 17.3 mph 25.3 mph N/A   Overcast
6:55 PM 39.2 °F 32.0 °F 23.0 °F 52% 30.03 in 10.0 mi North 11.5 mph 23.0 mph N/A   Overcast
7:15 PM 37.4 °F 29.3 °F 24.8 °F 60% 30.04 in 10.0 mi North 12.7 mph 20.7 mph N/A   Overcast
7:35 PM 37.4 °F 28.5 °F 24.8 °F 60% 30.04 in 10.0 mi North 15.0 mph 24.2 mph N/A   Overcast
7:55 PM 37.4 °F 29.3 °F 24.8 °F 60% 30.05 in 10.0 mi North 12.7 mph 16.1 mph N/A   Overcast
8:15 PM 37.4 °F 29.3 °F 23.0 °F 56% 30.05 in 10.0 mi North 12.7 mph 19.6 mph N/A   Overcast
8:35 PM 37.4 °F 29.3 °F 23.0 °F 56% 30.05 in 10.0 mi North 12.7 mph 20.7 mph N/A   Overcast
8:55 PM 37.4 °F 30.8 °F 23.0 °F 56% 30.06 in 10.0 mi North 9.2 mph 21.9 mph N/A   Overcast
9:15 PM 35.6 °F 28.0 °F 24.8 °F 65% 30.06 in 10.0 mi North 10.4 mph - N/A   Mostly Cloudy
9:35 PM 35.6 °F 29.2 °F 24.8 °F 65% 30.06 in 10.0 mi NNW 8.1 mph - N/A   Overcast
9:55 PM 35.6 °F 28.6 °F 23.0 °F 60% 30.06 in 10.0 mi NNW 9.2 mph - N/A   Mostly Cloudy
10:15 PM 35.6 °F 29.9 °F 23.0 °F 60% 30.06 in 10.0 mi North 6.9 mph - N/A   Mostly Cloudy
10:35 PM 35.6 °F 30.7 °F 23.0 °F 60% 30.07 in 10.0 mi NNW 5.8 mph - N/A   Partly Cloudy
10:55 PM 33.8 °F 28.6 °F 23.0 °F 65% 30.08 in 10.0 mi NNW 5.8 mph - N/A   Clear
11:15 PM 33.8 °F 30.8 °F 23.0 °F 65% 30.08 in 10.0 mi NW 3.5 mph - N/A   Clear
11:35 PM 33.8 °F 30.8 °F 24.8 °F 70% 30.08 in 10.0 mi NW 3.5 mph - N/A   Clear
11:55 PM 32.0 °F 27.5 °F 24.8 °F 75% 30.08 in 10.0 mi NW 4.6 mph - N/A   Clear